SCP
0 0 0 0 0 0 0 0 0 0 0 0 0 0 0 0 0 0 0 0 0 0 0 0 0 1 1 1 1 1 1 1 1 1 1 1 1 1 0 1 1 1 1
0 0 0 0 0 0 0 0 0 0 0 0 0 0 0 0 0 0 0 0 0 0 0 0 0 1 1 2 2 2 1 1 1 1 1 1 0 0 0 0 1 1 1
0 0 0 0 0 0 0 0 0 0 0 0 0 0 0 0 0 0 0 0 0 0 0 0 0 1 1 1 1 1 1 1 1 1 1 1 1 0 0 1 1 1 1
0 0 0 0 0 0 0 0 0 0 0 0 0 0 0 0 0 0 0 0 0 0 0 0 1 1 0 0 0 0 1 1 1 1 1 1 1 1 1 1 1 1 1
0 0 0 0 0 0 0 0 0 0 0 0 0 0 0 0 0 0 0 0 0 1 1 0 0 0 0 0 0 1 1 1 1 1 1 1 1 1 1 1 1 1 1
0 0 0 0 0 0 0 0 0 0 0 0 0 1 1 1 0 0 0 0 0 0 0 0 0 0 0 0 0 0 1 1 1 1 1 1 1 1 1 0 0 0 0
0 0 0 0 0 0 0 0 0 0 1 0 1 0 0 0 0 0 0 0 0 0 0 0 0 0 0 0 0 0 1 1 2 2 1 1 1 1 0 0 0 0 0
0 0 0 0 0 0 0 0 1 1 1 0 0 0 0 0 0 0 0 0 0 0 0 0 0 0 0 0 0 0 1 2 1 2 1 1 1 1 1 0 0 1 1
0 0 0 0 0 0 1 1 1 1 1 0 0 1 0 0 0 0 0 0 0 0 0 0 0 0 0 0 0 1 1 1 0 0 0 1 0 0 0 0 0 0 0
0 0 0 0 0 2 2 1 1 1 1 0 0 0 0 0 0 0 0 0 0 0 0 0 0 0 0 0 0 0 0 0 0 0 0 0 0 0 0 0 0 0 0
0 0 0 0 0 1 1 1 0 0 0 0 0 0 0 0 0 0 0 0 0 0 0 0 0 0 0 0 0 0 0 0 0 0 0 0 0 0 0 0 0 0 0
2 1 1 1 1 1 0 0 0 0 0 0 0 0 0 0 0 0 0 0 0 0 0 0 0 0 0 0 0 0 0 0 0 0 0 0 0 0 0 0 0 0 0
3 2 2 1 1 0 0 0 0 0 0 0 0 0 0 0 0 0 0 0 0 0 0 0 0 0 0 0 0 0 0 0 0 0 0 0 0 0 0 0 0 0 0
4 1 1 1 0 0 0 0 0 0 0 0 0 0 0 0 0 0 0 0 0 0 0 0 0 0 0 0 0 0 0 0 0 0 0 0 0 0 0 0 0 0 0
1 1 0 0 0 0 0 0 0 0 0 0 0 0 0 0 0 0 0 0 0 0 0 0 0 0 0 0 0 0 0 0 0 0 0 0 0 0 0 0 0 0 0
0 0 0 0 0 0 0 0 0 0 0 0 0 0 0 0 0 0 0 0 0 0 0 0 0 0 0 0 0 0 0 0 0 0 0 0 0 0 0 0 0 0 0
0 0 0 0 0 0 0 0 0 0 0 0 0 0 0 0 0 0 0 0 0 0 0 0 0 0 0 0 0 0 0 0 0 0 0 0 0 0 0 0 0 0 0
0 0 0 0 0 0 0 0 0 0 0 0 0 0 0 0 0 0 0 0 0 0 0 0 0 0 0 0 0 0 0 0 0 0 0 0 0 0 0 0 0 0 0
0 0 0 0 0 0 0 0 0 0 0 0 0 0 0 0 0 0 0 0 0 0 0 0 0 0 0 0 0 0 0 0 0 0 0 0 0 0 0 0 0 0 0
0 0 0 0 0 0 0 0 0 0 0 0 0 0 0 0 0 0 0 0 0 0 0 0 0 0 0 0 0 0 0 0 0 0 0 0 0 0 0 0 0 0 0
0 0 0 0 0 0 0 0 0 0 0 0 0 0 0 0 0 0 0 0 0 0 0 0 0 0 0 0 0 0 0 0 0 0 0 0 0 0 0 0 0 0 0
0 0 0 0 0 0 0 0 0 0 0 0 0 0 0 0 0 0 0 0 0 0 0 0 0 0 0 0 0 0 0 0 0 0 -0 0 0 0 0 0 0 0 0
0 0 0 0 0 0 0 0 0 0 0 0 0 0 0 0 0 0 0 0 0 0 0 0 0 0 0 0 0 0 0 0 0 0 0 0 0 0 0 0 0 0 0
0 0 0 0 0 0 0 0 0 0 0 0 0 0 0 0 0 0 0 0 0 0 0 0 0 0 0 0 0 0 0 0 0 0 0 0 0 0 0 0 0 0 0
0 0 0 0 0 0 0 0 0 0 0 0 0 0 0 0 0 0 0 0 0 0 0 0 0 0 0 0 0 0 0 0 0 0 0 0 0 0 0 0 0 0 0
0 0 0 0 0 0 0 0 0 0 0 0 0 0 0 0 0 0 0 0 0 0 0 0 0 0 0 0 0 0 0 0 0 0 0 0 0 0 0 0 0 0 0
Wind_Speed_500mb
45 42 38 34 30 27 22 18 17 17 16 14 14 16 16 18 17 19 22 22 24 27 30 34 38 42 44 45 45 45 46 47 55 54 41 35 36 40 42 46 50 50 50
42 40 40 38 34 28 23 20 15 13 13 17 19 23 23 26 28 28 31 31 30 35 37 40 44 46 48 49 50 52 51 52 55 48 41 38 49 42 47 48 45 48 49
43 40 39 39 35 31 28 25 21 19 17 20 21 23 26 29 32 35 37 40 39 40 46 48 40 42 44 46 47 49 52 54 50 37 34 35 40 45 44 49 53 54 56
44 43 40 36 30 32 32 30 24 22 24 27 29 30 34 37 38 40 43 42 46 50 53 44 46 50 52 49 51 53 52 43 37 39 40 37 42 52 53 51 48 48 52
46 45 41 35 33 31 30 26 22 22 21 24 31 34 36 41 46 54 56 52 49 45 40 38 38 39 40 41 39 38 39 40 40 41 39 41 50 49 52 54 54 54 53
46 44 41 39 38 35 31 25 20 21 25 28 34 41 43 47 51 47 44 40 32 26 27 30 35 43 42 43 47 42 40 31 37 40 38 44 48 51 53 55 57 53 53
48 46 43 42 39 33 21 17 19 21 26 35 39 46 49 54 46 46 30 15 29 30 30 37 43 46 45 42 41 36 39 39 35 35 39 39 45 46 47 44 40 40 44
48 46 42 42 41 31 17 12 14 20 27 30 41 44 40 51 28 17 31 29 30 27 33 37 39 42 44 45 43 39 34 37 35 35 34 37 39 40 38 33 34 39 36
48 45 40 38 34 28 24 21 19 21 26 33 36 36 25 15 43 31 30 26 33 32 35 39 44 47 48 48 45 42 43 41 48 47 33 34 34 32 28 32 35 35 40
52 48 45 41 34 28 34 28 25 32 32 29 33 43 32 30 23 26 29 44 36 37 44 42 42 48 48 43 39 40 42 41 34 33 30 35 33 31 25 25 36 38 40
57 51 50 46 43 37 31 27 24 35 34 38 42 34 23 25 23 21 45 40 42 44 40 43 48 47 42 37 34 36 35 32 26 23 25 29 31 32 32 29 33 35 35
59 55 52 44 39 33 27 19 23 43 32 41 38 27 26 22 29 24 30 32 42 35 40 40 43 46 43 37 32 30 31 30 31 34 34 33 29 27 30 34 35 36 30
64 59 54 44 37 35 17 11 48 43 38 34 30 26 28 31 29 30 31 34 26 34 27 36 40 46 38 38 37 33 34 35 38 39 34 32 35 32 35 33 30 29 26
61 49 42 36 37 14 11 29 41 40 38 24 24 33 31 30 27 30 29 30 28 28 29 26 43 38 40 53 51 45 41 39 39 39 41 44 44 42 40 35 29 29 29
52 41 34 30 7 32 18 18 40 37 19 24 31 30 25 25 25 29 32 32 30 22 32 30 34 38 49 51 51 51 50 46 44 43 43 43 45 45 50 41 37 31 27
47 32 10 6 25 35 18 33 28 20 22 29 25 22 22 25 29 30 32 32 30 30 26 34 41 45 45 47 49 48 47 47 45 46 46 46 48 49 49 45 45 45 38
56 25 6 49 60 41 29 29 22 22 24 24 23 22 25 27 28 30 31 32 30 28 32 40 43 44 44 44 45 44 45 45 44 43 44 47 49 50 51 52 51 49 50
42 25 46 63 49 32 25 24 20 22 22 23 24 24 25 26 28 27 27 28 30 35 38 40 40 39 38 40 41 42 42 40 39 37 35 36 42 49 53 54 55 55 54
47 53 59 53 40 25 25 27 23 22 19 23 24 25 23 17 16 19 24 31 34 31 27 29 33 34 33 35 35 30 30 27 31 26 24 28 33 38 41 46 53 57 56
58 63 57 39 33 30 29 24 20 18 18 18 14 10 7 8 14 19 24 24 23 24 23 25 24 25 31 34 35 42 31 29 30 26 28 40 39 40 40 44 45 45 49
60 54 46 41 35 28 21 16 13 11 7 5 4 5 6 8 15 18 24 21 20 20 22 22 25 30 32 39 44 46 49 50 43 48 52 43 48 36 38 38 37 37 40
51 39 40 33 26 17 14 14 7 3 1 1 2 2 4 11 17 22 21 19 21 22 24 25 30 35 37 43 47 51 57 63 68 53 74 56 48 42 38 36 34 31 31
48 39 33 25 16 10 4 5 4 4 4 2 3 2 7 13 16 14 14 18 20 23 24 25 30 36 45 49 54 59 62 64 67 69 67 62 36 41 42 38 30 25 29
42 36 28 19 13 12 12 8 6 5 3 5 2 4 8 13 9 9 12 16 19 21 25 29 32 38 45 51 55 62 66 70 70 56 37 37 51 50 50 42 22 22 21
45 35 26 20 16 16 13 8 4 5 6 3 1 4 9 10 8 12 14 16 20 26 28 33 37 41 45 49 54 55 49 45 44 47 30 48 55 59 61 45 35 34 30
43 35 30 24 22 15 14 10 7 6 3 3 2 7 7 12 12 11 17 23 25 28 31 32 30 28 29 31 30 28 30 35 40 40 33 51 50 53 58 41 53 41 28
Wind_Direction_500mb
209 209 208 208 207 207 208 219 233 247 250 257 277 278 277 284 291 296 306 309 300 298 298 299 302 305 307 303 303 302 303 299 309 298 288 291 298 298 293 286 283 282 280
211 214 215 217 216 215 217 215 219 235 244 266 277 286 290 292 293 295 298 300 299 298 300 299 298 302 302 300 301 301 297 299 307 302 287 297 292 296 300 296 287 284 285
214 216 218 222 221 221 215 219 232 248 262 284 290 290 296 301 297 294 291 295 302 306 307 307 307 307 303 302 298 297 301 302 301 289 292 298 297 295 299 295 286 281 280
219 220 221 221 220 221 223 228 238 256 271 287 296 298 299 304 305 302 297 301 303 305 308 309 304 302 298 298 293 294 297 298 294 289 293 301 302 300 297 298 290 287 281
222 222 221 217 211 212 220 230 245 271 288 297 301 307 313 312 308 305 309 303 301 302 303 301 304 307 307 302 300 299 295 291 293 292 300 302 302 299 295 296 293 294 288
224 223 220 215 212 216 225 238 259 280 300 305 307 306 299 303 308 310 310 307 308 310 311 310 307 307 306 298 294 292 299 294 298 296 299 306 309 306 301 296 295 293 287
224 223 217 211 209 214 221 246 268 281 290 303 301 306 308 308 308 303 305 315 320 319 311 307 309 312 307 299 302 301 295 297 298 299 306 309 309 310 309 308 311 313 300
217 215 209 202 204 202 194 205 247 273 289 296 302 310 318 315 317 312 306 305 311 318 318 321 314 308 304 299 300 302 292 291 294 296 302 307 313 317 316 318 323 327 321
209 205 200 197 199 194 189 218 245 255 270 292 301 306 304 303 307 316 302 317 320 325 329 323 319 315 310 302 298 296 293 289 290 292 298 312 319 321 324 325 325 327 315
208 208 210 213 199 205 219 223 246 264 270 276 292 302 294 284 282 308 303 314 325 323 322 323 323 322 324 319 312 297 292 294 303 314 315 316 322 317 309 305 312 324 331
215 216 218 219 216 214 227 230 256 273 276 299 298 288 282 287 290 297 302 309 313 318 323 326 324 321 325 330 323 314 305 300 296 294 303 309 310 311 301 293 304 317 326
218 217 223 226 230 222 224 255 301 267 288 293 285 284 289 292 308 296 292 300 311 322 328 322 321 323 325 328 327 315 310 306 295 290 292 295 298 307 316 299 292 302 304
222 220 224 226 219 203 213 276 260 283 295 283 277 285 298 296 297 296 299 306 308 321 324 312 307 314 314 323 327 327 326 320 313 310 305 299 294 303 313 311 300 303 287
226 223 233 233 209 195 204 244 273 293 284 266 278 291 290 294 290 296 303 308 312 311 316 294 304 297 303 314 318 317 317 314 311 310 309 309 297 288 310 295 295 304 311
225 220 208 182 183 218 294 264 266 271 248 282 284 284 281 283 291 301 304 304 308 309 309 302 291 294 303 308 313 315 314 312 307 304 302 302 299 295 301 296 284 288 303
207 164 191 354 275 266 261 245 238 237 269 273 265 265 272 286 297 299 298 300 303 304 301 295 304 311 314 314 315 314 312 309 304 298 296 296 294 295 298 297 283 279 285
203 196 105 244 237 221 217 217 230 259 245 250 254 265 283 293 295 297 300 304 305 308 308 307 313 319 323 323 318 317 316 312 309 304 297 292 293 293 292 294 295 289 280
178 189 191 214 207 203 206 226 223 223 235 255 271 284 291 291 294 298 300 305 315 317 315 318 324 332 337 333 334 332 333 332 324 320 313 303 295 291 289 287 287 289 290
189 190 193 189 188 194 205 206 218 234 253 272 284 288 289 290 293 298 305 311 322 334 333 335 333 339 344 340 346 356 359 6 351 347 353 346 332 316 304 291 279 277 279
172 170 171 179 184 190 193 210 236 258 283 288 288 289 291 302 307 316 321 331 343 345 342 342 346 353 351 351 349 350 6 7 359 340 332 338 332 322 316 305 296 290 279
162 162 163 169 175 182 205 233 268 297 295 273 272 292 310 328 339 346 341 354 7 10 23 13 2 354 350 348 352 349 343 342 349 343 336 343 336 335 326 320 310 297 289
163 168 168 172 180 203 242 276 290 301 224 313 329 290 323 337 348 349 351 3 2 12 13 5 356 345 341 338 336 337 337 335 335 339 329 335 335 343 341 339 321 307 299
166 176 176 177 186 198 203 118 112 72 46 63 185 253 319 340 346 356 14 6 6 5 352 345 341 331 329 329 327 326 325 322 319 325 322 327 337 347 352 346 338 317 304
169 176 174 175 176 148 132 138 106 56 105 163 187 320 339 352 8 23 10 358 357 344 332 330 323 317 314 314 312 312 315 315 318 326 333 339 350 346 343 341 330 343 331
170 167 163 155 148 143 141 123 102 108 170 181 311 342 359 5 27 10 357 344 339 332 325 321 316 311 309 307 306 312 317 328 344 352 358 341 343 339 339 348 344 321 316
162 157 152 147 142 141 142 144 141 177 213 246 327 352 37 23 28 4 337 337 342 343 340 341 339 341 342 341 343 347 348 345 344 345 344 334 333 339 334 343 343 349 331
Wind_Speed_850mb
45 42 38 34 30 27 22 18 17 17 16 14 14 16 16 18 17 19 22 22 24 27 30 34 38 42 44 45 45 45 46 47 55 54 41 35 36 40 42 46 50 50 50
42 40 40 38 34 28 23 20 15 13 13 17 19 23 23 26 28 28 31 31 30 35 37 40 44 46 48 49 50 52 51 52 55 48 41 38 49 42 47 48 45 48 49
43 40 39 39 35 31 28 25 21 19 17 20 21 23 26 29 32 35 37 40 39 40 46 48 40 42 44 46 47 49 52 54 50 37 34 35 40 45 44 49 53 54 56
44 43 40 36 30 32 32 30 24 22 24 27 29 30 34 37 38 40 43 42 46 50 53 44 46 50 52 49 51 53 52 43 37 39 40 37 42 52 53 51 48 48 52
46 45 41 35 33 31 30 26 22 22 21 24 31 34 36 41 46 54 56 52 49 45 40 38 38 39 40 41 39 38 39 40 40 41 39 41 50 49 52 54 54 54 53
46 44 41 39 38 35 31 25 20 21 25 28 34 41 43 47 51 47 44 40 32 26 27 30 35 43 42 43 47 42 40 31 37 40 38 44 48 51 53 55 57 53 53
48 46 43 42 39 33 21 17 19 21 26 35 39 46 49 54 46 46 30 15 29 30 30 37 43 46 45 42 41 36 39 39 35 35 39 39 45 46 47 44 40 40 44
48 46 42 42 41 31 17 12 14 20 27 30 41 44 40 51 28 17 31 29 30 27 33 37 39 42 44 45 43 39 34 37 35 35 34 37 39 40 38 33 34 39 36
48 45 40 38 34 28 24 21 19 21 26 33 36 36 25 15 43 31 30 26 33 32 35 39 44 47 48 48 45 42 43 41 48 47 33 34 34 32 28 32 35 35 40
52 48 45 41 34 28 34 28 25 32 32 29 33 43 32 30 23 26 29 44 36 37 44 42 42 48 48 43 39 40 42 41 34 33 30 35 33 31 25 25 36 38 40
57 51 50 46 43 37 31 27 24 35 34 38 42 34 23 25 23 21 45 40 42 44 40 43 48 47 42 37 34 36 35 32 26 23 25 29 31 32 32 29 33 35 35
59 55 52 44 39 33 27 19 23 43 32 41 38 27 26 22 29 24 30 32 42 35 40 40 43 46 43 37 32 30 31 30 31 34 34 33 29 27 30 34 35 36 30
64 59 54 44 37 35 17 11 48 43 38 34 30 26 28 31 29 30 31 34 26 34 27 36 40 46 38 38 37 33 34 35 38 39 34 32 35 32 35 33 30 29 26
61 49 42 36 37 14 11 29 41 40 38 24 24 33 31 30 27 30 29 30 28 28 29 26 43 38 40 53 51 45 41 39 39 39 41 44 44 42 40 35 29 29 29
52 41 34 30 7 32 18 18 40 37 19 24 31 30 25 25 25 29 32 32 30 22 32 30 34 38 49 51 51 51 50 46 44 43 43 43 45 45 50 41 37 31 27
47 32 10 6 25 35 18 33 28 20 22 29 25 22 22 25 29 30 32 32 30 30 26 34 41 45 45 47 49 48 47 47 45 46 46 46 48 49 49 45 45 45 38
56 25 6 49 60 41 29 29 22 22 24 24 23 22 25 27 28 30 31 32 30 28 32 40 43 44 44 44 45 44 45 45 44 43 44 47 49 50 51 52 51 49 50
42 25 46 63 49 32 25 24 20 22 22 23 24 24 25 26 28 27 27 28 30 35 38 40 40 39 38 40 41 42 42 40 39 37 35 36 42 49 53 54 55 55 54
47 53 59 53 40 25 25 27 23 22 19 23 24 25 23 17 16 19 24 31 34 31 27 29 33 34 33 35 35 30 30 27 31 26 24 28 33 38 41 46 53 57 56
58 63 57 39 33 30 29 24 20 18 18 18 14 10 7 8 14 19 24 24 23 24 23 25 24 25 31 34 35 42 31 29 30 26 28 40 39 40 40 44 45 45 49
60 54 46 41 35 28 21 16 13 11 7 5 4 5 6 8 15 18 24 21 20 20 22 22 25 30 32 39 44 46 49 50 43 48 52 43 48 36 38 38 37 37 40
51 39 40 33 26 17 14 14 7 3 1 1 2 2 4 11 17 22 21 19 21 22 24 25 30 35 37 43 47 51 57 63 68 53 74 56 48 42 38 36 34 31 31
48 39 33 25 16 10 4 5 4 4 4 2 3 2 7 13 16 14 14 18 20 23 24 25 30 36 45 49 54 59 62 64 67 69 67 62 36 41 42 38 30 25 29
42 36 28 19 13 12 12 8 6 5 3 5 2 4 8 13 9 9 12 16 19 21 25 29 32 38 45 51 55 62 66 70 70 56 37 37 51 50 50 42 22 22 21
45 35 26 20 16 16 13 8 4 5 6 3 1 4 9 10 8 12 14 16 20 26 28 33 37 41 45 49 54 55 49 45 44 47 30 48 55 59 61 45 35 34 30
43 35 30 24 22 15 14 10 7 6 3 3 2 7 7 12 12 11 17 23 25 28 31 32 30 28 29 31 30 28 30 35 40 40 33 51 50 53 58 41 53 41 28
Wind_Direction_850mb
209 209 208 208 207 207 208 219 233 247 250 257 277 278 277 284 291 296 306 309 300 298 298 299 302 305 307 303 303 302 303 299 309 298 288 291 298 298 293 286 283 282 280
211 214 215 217 216 215 217 215 219 235 244 266 277 286 290 292 293 295 298 300 299 298 300 299 298 302 302 300 301 301 297 299 307 302 287 297 292 296 300 296 287 284 285
214 216 218 222 221 221 215 219 232 248 262 284 290 290 296 301 297 294 291 295 302 306 307 307 307 307 303 302 298 297 301 302 301 289 292 298 297 295 299 295 286 281 280
219 220 221 221 220 221 223 228 238 256 271 287 296 298 299 304 305 302 297 301 303 305 308 309 304 302 298 298 293 294 297 298 294 289 293 301 302 300 297 298 290 287 281
222 222 221 217 211 212 220 230 245 271 288 297 301 307 313 312 308 305 309 303 301 302 303 301 304 307 307 302 300 299 295 291 293 292 300 302 302 299 295 296 293 294 288
224 223 220 215 212 216 225 238 259 280 300 305 307 306 299 303 308 310 310 307 308 310 311 310 307 307 306 298 294 292 299 294 298 296 299 306 309 306 301 296 295 293 287
224 223 217 211 209 214 221 246 268 281 290 303 301 306 308 308 308 303 305 315 320 319 311 307 309 312 307 299 302 301 295 297 298 299 306 309 309 310 309 308 311 313 300
217 215 209 202 204 202 194 205 247 273 289 296 302 310 318 315 317 312 306 305 311 318 318 321 314 308 304 299 300 302 292 291 294 296 302 307 313 317 316 318 323 327 321
209 205 200 197 199 194 189 218 245 255 270 292 301 306 304 303 307 316 302 317 320 325 329 323 319 315 310 302 298 296 293 289 290 292 298 312 319 321 324 325 325 327 315
208 208 210 213 199 205 219 223 246 264 270 276 292 302 294 284 282 308 303 314 325 323 322 323 323 322 324 319 312 297 292 294 303 314 315 316 322 317 309 305 312 324 331
215 216 218 219 216 214 227 230 256 273 276 299 298 288 282 287 290 297 302 309 313 318 323 326 324 321 325 330 323 314 305 300 296 294 303 309 310 311 301 293 304 317 326
218 217 223 226 230 222 224 255 301 267 288 293 285 284 289 292 308 296 292 300 311 322 328 322 321 323 325 328 327 315 310 306 295 290 292 295 298 307 316 299 292 302 304
222 220 224 226 219 203 213 276 260 283 295 283 277 285 298 296 297 296 299 306 308 321 324 312 307 314 314 323 327 327 326 320 313 310 305 299 294 303 313 311 300 303 287
226 223 233 233 209 195 204 244 273 293 284 266 278 291 290 294 290 296 303 308 312 311 316 294 304 297 303 314 318 317 317 314 311 310 309 309 297 288 310 295 295 304 311
225 220 208 182 183 218 294 264 266 271 248 282 284 284 281 283 291 301 304 304 308 309 309 302 291 294 303 308 313 315 314 312 307 304 302 302 299 295 301 296 284 288 303
207 164 191 354 275 266 261 245 238 237 269 273 265 265 272 286 297 299 298 300 303 304 301 295 304 311 314 314 315 314 312 309 304 298 296 296 294 295 298 297 283 279 285
203 196 105 244 237 221 217 217 230 259 245 250 254 265 283 293 295 297 300 304 305 308 308 307 313 319 323 323 318 317 316 312 309 304 297 292 293 293 292 294 295 289 280
178 189 191 214 207 203 206 226 223 223 235 255 271 284 291 291 294 298 300 305 315 317 315 318 324 332 337 333 334 332 333 332 324 320 313 303 295 291 289 287 287 289 290
189 190 193 189 188 194 205 206 218 234 253 272 284 288 289 290 293 298 305 311 322 334 333 335 333 339 344 340 346 356 359 6 351 347 353 346 332 316 304 291 279 277 279
172 170 171 179 184 190 193 210 236 258 283 288 288 289 291 302 307 316 321 331 343 345 342 342 346 353 351 351 349 350 6 7 359 340 332 338 332 322 316 305 296 290 279
162 162 163 169 175 182 205 233 268 297 295 273 272 292 310 328 339 346 341 354 7 10 23 13 2 354 350 348 352 349 343 342 349 343 336 343 336 335 326 320 310 297 289
163 168 168 172 180 203 242 276 290 301 224 313 329 290 323 337 348 349 351 3 2 12 13 5 356 345 341 338 336 337 337 335 335 339 329 335 335 343 341 339 321 307 299
166 176 176 177 186 198 203 118 112 72 46 63 185 253 319 340 346 356 14 6 6 5 352 345 341 331 329 329 327 326 325 322 319 325 322 327 337 347 352 346 338 317 304
169 176 174 175 176 148 132 138 106 56 105 163 187 320 339 352 8 23 10 358 357 344 332 330 323 317 314 314 312 312 315 315 318 326 333 339 350 346 343 341 330 343 331
170 167 163 155 148 143 141 123 102 108 170 181 311 342 359 5 27 10 357 344 339 332 325 321 316 311 309 307 306 312 317 328 344 352 358 341 343 339 339 348 344 321 316
162 157 152 147 142 141 142 144 141 177 213 246 327 352 37 23 28 4 337 337 342 343 340 341 339 341 342 341 343 347 348 345 344 345 344 334 333 339 334 343 343 349 331